| time (UTC) | temp C | wind direction | speed KPH | gust KPH | rain 1hr cm | rain 24hr cm | rain mn cm | humidity % | barometer mb |
| 20260904060012 | 20 | 88 | 0.0 | 0.0 | 0.00 | 0.91 | 0.08 | 94 | 1010.5 |
| 20260904054522 | 20 | 88 | 0.0 | 0.0 | 0.00 | 1.04 | 0.08 | 94 | 1010.6 |
| 20260904053009 | 20 | 88 | 0.0 | 1.6 | 0.03 | 1.04 | 0.08 | 94 | 1010.6 |
| 20260904051510 | 20 | 88 | 0.0 | 1.6 | 0.03 | 1.04 | 0.08 | 94 | 1010.9 |
| 20260904050014 | 20 | 88 | 0.0 | 1.6 | 0.03 | 1.04 | 0.08 | 94 | 1010.9 |
| 20260904044505 | 20 | 88 | 0.0 | 1.6 | 0.15 | 1.30 | 0.08 | 94 | 1011.1 |
| 20260904043011 | 20 | 88 | 0.0 | 1.6 | 0.13 | 1.27 | 0.05 | 94 | 1011.2 |
| 20260904041503 | 20 | 88 | 0.0 | 1.6 | 0.13 | 1.27 | 0.05 | 94 | 1011.5 |
| 20260904040001 | 20 | 88 | 0.0 | 3.2 | 0.13 | 1.27 | 0.05 | 93 | 1011.5 |
| 20260904034601 | 20 | 88 | 0.0 | 1.6 | 0.00 | 1.91 | 1.14 | 93 | 1011.6 |
| 20260904033100 | 20 | 88 | 0.0 | 0.0 | 0.00 | 1.91 | 1.14 | 93 | 1011.9 |
| 20260904031559 | 20 | 88 | 0.0 | 0.0 | 0.00 | 1.91 | 1.14 | 93 | 1012.0 |
| 20260904024600 | 20 | 88 | 0.0 | 1.6 | 0.00 | 1.98 | 1.14 | 92 | 1011.6 |
| 20260904023102 | 20 | 88 | 0.0 | 1.6 | 0.23 | 1.98 | 1.14 | 92 | 1011.6 |
| 20260904021600 | 20 | 88 | 0.0 | 3.2 | 0.38 | 1.98 | 1.14 | 92 | 1011.5 |
| 20260904020058 | 20 | 88 | 0.0 | 0.0 | 0.38 | 1.98 | 1.14 | 92 | 1012.4 |
| 20260904014558 | 21 | 88 | 1.6 | 4.8 | 0.38 | 1.98 | 1.14 | 91 | 1012.2 |
| 20260904013055 | 22 | 260 | 3.2 | 6.4 | 0.13 | 1.73 | 0.89 | 92 | 1013.4 |
| 20260904011609 | 22 | 114 | 0.0 | 1.6 | 0.00 | 1.60 | 0.76 | 91 | 1012.4 |
| 20260904010105 | 22 | 114 | 0.0 | 3.2 | 0.00 | 1.60 | 0.76 | 90 | 1012.5 |
| 20260904004556 | 22 | 114 | 0.0 | 1.6 | 0.00 | 1.60 | 0.76 | 89 | 1012.4 |
| 20260904003051 | 22 | 114 | 0.0 | 1.6 | 0.00 | 1.60 | 0.76 | 89 | 1012.4 |
| 20260904001551 | 22 | 114 | 0.0 | 1.6 | 0.00 | 1.60 | 0.76 | 88 | 1012.4 |
| 20260904000058 | 23 | 114 | 0.0 | 3.2 | 0.00 | 1.60 | 0.76 | 87 | 1012.0 |
| 20260903234550 | 23 | 114 | 0.0 | 1.6 | 0.00 | 1.60 | 0.76 | 86 | 1011.9 |
| 20260903233049 | 23 | 114 | 0.0 | 0.0 | 0.00 | 1.60 | 0.76 | 86 | 1011.9 |
| 20260903231553 | 24 | 114 | 0.0 | 1.6 | 0.00 | 1.60 | 0.76 | 84 | 1011.9 |
| 20260903230050 | 24 | 114 | 0.0 | 1.6 | 0.00 | 1.60 | 0.76 | 82 | 1012.4 |
| 20260903224548 | 25 | 114 | 0.0 | 0.0 | 0.00 | 1.60 | 0.76 | 81 | 1011.9 |
| 20260903223044 | 25 | 114 | 0.0 | 1.6 | 0.00 | 1.60 | 0.76 | 79 | 1011.7 |
| 20260903221543 | 25 | 114 | 0.0 | 3.2 | 0.00 | 1.60 | 0.76 | 79 | 1011.6 |
| 20260903220041 | 25 | 154 | 0.0 | 3.2 | 0.00 | 1.60 | 0.76 | 79 | 1012.0 |
| 20260903214543 | 25 | 154 | 0.0 | 3.2 | 0.00 | 1.60 | 0.76 | 77 | 1011.9 |
| 20260903213049 | 25 | 211 | 0.0 | 4.8 | 0.00 | 1.60 | 0.76 | 76 | 1011.7 |
| 20260903211537 | 26 | 164 | 0.0 | 4.8 | 0.00 | 1.60 | 0.76 | 75 | 1011.5 |
| 20260903210035 | 26 | 118 | 0.0 | 4.8 | 0.00 | 1.60 | 0.76 | 75 | 1011.7 |
| 20260903204533 | 26 | 167 | 1.6 | 4.8 | 0.00 | 1.60 | 0.76 | 74 | 1011.7 |
| 20260903203045 | 26 | 178 | 0.0 | 4.8 | 0.00 | 1.60 | 0.76 | 74 | 1011.8 |
| 20260903201535 | 26 | 246 | 0.0 | 6.4 | 0.00 | 1.60 | 0.76 | 74 | 1011.9 |
| 20260903200027 | 26 | 131 | 0.0 | 6.4 | 0.00 | 1.60 | 0.76 | 72 | 1012.2 |
| 20260903194526 | 26 | 162 | 1.6 | 4.8 | 0.00 | 1.60 | 0.76 | 74 | 1012.1 |
| 20260903193034 | 27 | 284 | 1.6 | 6.4 | 0.00 | 1.60 | 0.76 | 69 | 1012.2 |
| 20260903191524 | 26 | 147 | 1.6 | 6.4 | 0.00 | 1.60 | 0.76 | 70 | 1012.4 |
| 20260903190022 | 27 | 250 | 3.2 | 6.4 | 0.00 | 1.60 | 0.76 | 69 | 1012.6 |
| 20260903184520 | 27 | 338 | 0.0 | 6.4 | 0.00 | 1.60 | 0.76 | 69 | 1012.7 |
| 20260903183019 | 27 | 103 | 3.2 | 8.0 | 0.00 | 1.60 | 0.76 | 68 | 1012.9 |
| 20260903181518 | 27 | 306 | 1.6 | 6.4 | 0.00 | 1.60 | 0.76 | 68 | 1013.0 |
| 20260903180022 | 26 | 273 | 1.6 | 11.3 | 0.00 | 1.60 | 0.76 | 71 | 1013.2 |
| 20260903174513 | 26 | 188 | 0.0 | 9.7 | 0.00 | 1.60 | 0.76 | 72 | 1013.1 |
| 20260903173012 | 26 | 304 | 1.6 | 8.0 | 0.00 | 1.60 | 0.76 | 70 | 1013.3 |
| 20260903171511 | 26 | 219 | 1.6 | 8.0 | 0.00 | 1.60 | 0.76 | 69 | 1013.4 |
| 20260903170016 | 26 | 244 | 1.6 | 6.4 | 0.00 | 1.60 | 0.76 | 73 | 1013.4 |
| 20260903164509 | 25 | 275 | 0.0 | 4.8 | 0.00 | 1.63 | 0.76 | 78 | 1013.6 |
| 20260903163002 | 24 | 192 | 3.2 | 8.0 | 0.00 | 1.63 | 0.76 | 79 | 1013.9 |
| 20260903161600 | 23 | 165 | 1.6 | 8.0 | 0.00 | 1.63 | 0.76 | 81 | 1014.2 |
| 20260903160058 | 23 | 281 | 3.2 | 8.0 | 0.00 | 1.63 | 0.76 | 83 | 1014.5 |
| 20260903154557 | 22 | 176 | 1.6 | 4.8 | 0.00 | 1.63 | 0.76 | 88 | 1014.4 |
| 20260903153050 | 20 | 184 | 0.0 | 4.8 | 0.00 | 1.63 | 0.76 | 95 | 1014.5 |
| 20260903151547 | 20 | 151 | 1.6 | 4.8 | 0.00 | 1.63 | 0.76 | 95 | 1014.5 |
| 20260903150047 | 20 | 86 | 0.0 | 4.8 | 0.00 | 1.63 | 0.76 | 95 | 1014.8 |
| 20260903144547 | 19 | 220 | 0.0 | 6.4 | 0.00 | 1.63 | 0.76 | 95 | 1015.2 |
| 20260903143048 | 19 | 217 | 1.6 | 9.7 | 0.00 | 1.63 | 0.76 | 95 | 1015.1 |
| 20260903141544 | 19 | 355 | 1.6 | 4.8 | 0.00 | 1.63 | 0.76 | 96 | 1015.1 |
| 20260903140046 | 19 | 204 | 1.6 | 4.8 | 0.00 | 1.63 | 0.76 | 96 | 1014.8 |
| 20260903134541 | 19 | 262 | 1.6 | 4.8 | 0.00 | 1.63 | 0.76 | 96 | 1014.6 |
| 20260903133045 | 19 | 63 | 0.0 | 6.4 | 0.00 | 1.63 | 0.76 | 97 | 1014.4 |
| 20260903131539 | 19 | 163 | 0.0 | 4.8 | 0.00 | 1.63 | 0.76 | 97 | 1014.3 |
| 20260903130043 | 18 | 175 | 1.6 | 3.2 | 0.00 | 1.63 | 0.76 | 97 | 1014.4 |
| 20260903124537 | 18 | 200 | 0.0 | 3.2 | 0.00 | 1.63 | 0.76 | 97 | 1014.2 |
| 20260903123035 | 18 | 204 | 0.0 | 1.6 | 0.00 | 1.63 | 0.76 | 97 | 1014.2 |
| 20260903121537 | 18 | 204 | 0.0 | 3.2 | 0.00 | 1.63 | 0.76 | 97 | 1013.8 |
| 20260903120050 | 18 | 204 | 0.0 | 3.2 | 0.00 | 1.63 | 0.76 | 96 | 1013.9 |
| 20260903114531 | 18 | 204 | 0.0 | 3.2 | 0.00 | 1.63 | 0.76 | 96 | 1014.2 |
| 20260903113057 | 18 | 204 | 0.0 | 3.2 | 0.00 | 1.63 | 0.76 | 96 | 1014.1 |
| 20260903111529 | 18 | 204 | 0.0 | 3.2 | 0.00 | 1.63 | 0.76 | 96 | 1013.3 |
| 20260903110028 | 18 | 204 | 1.6 | 3.2 | 0.03 | 1.63 | 0.76 | 96 | 1014.0 |
| 20260903104542 | 18 | 204 | 0.0 | 3.2 | 0.03 | 1.63 | 0.76 | 96 | 1014.6 |
| 20260903103031 | 18 | 204 | 0.0 | 3.2 | 0.03 | 1.63 | 0.76 | 96 | 1014.9 |
| 20260903101528 | 18 | 138 | 1.6 | 3.2 | 0.03 | 1.63 | 0.76 | 96 | 1015.1 |
| 20260903100033 | 17 | 193 | 0.0 | 3.2 | 0.00 | 1.60 | 0.71 | 96 | 1015.0 |
| 20260903094542 | 17 | 193 | 0.0 | 1.6 | 0.00 | 1.60 | 0.71 | 96 | 1015.2 |
| 20260903093023 | 17 | 193 | 0.0 | 3.2 | 0.00 | 1.60 | 0.71 | 96 | 1015.0 |
| 20260903091533 | 17 | 193 | 0.0 | 3.2 | 0.00 | 1.60 | 0.71 | 96 | 1014.5 |
| 20260903090022 | 17 | 221 | 1.6 | 4.8 | 0.00 | 1.60 | 0.71 | 96 | 1014.3 |
| 20260903084520 | 17 | 177 | 0.0 | 3.2 | 0.00 | 1.60 | 0.71 | 96 | 1014.4 |
| 20260903083018 | 17 | 177 | 0.0 | 1.6 | 0.03 | 1.60 | 0.71 | 96 | 1014.5 |
| 20260903081518 | 17 | 177 | 0.0 | 1.6 | 0.10 | 1.60 | 0.71 | 96 | 1014.6 |
| 20260903080018 | 17 | 177 | 0.0 | 3.2 | 0.20 | 1.60 | 0.71 | 96 | 1014.8 |
| 20260903074516 | 17 | 176 | 0.0 | 4.8 | 0.28 | 1.60 | 0.71 | 96 | 1014.4 |
| 20260903073028 | 17 | 204 | 1.6 | 4.8 | 0.30 | 1.57 | 0.71 | 96 | 1014.4 |
| 20260903071518 | 17 | 148 | 1.6 | 4.8 | 0.25 | 1.50 | 0.64 | 96 | 1014.7 |
| 20260903070013 | 17 | 240 | 0.0 | 3.2 | 0.15 | 1.40 | 0.53 | 96 | 1016.1 |
| 20260903064510 | 17 | 234 | 1.6 | 4.8 | 0.08 | 1.32 | 0.46 | 96 | 1016.4 |
| 20260903063011 | 17 | 234 | 0.0 | 1.6 | 0.05 | 1.27 | 0.41 | 96 | 1015.7 |
| 20260903061509 | 17 | 234 | 0.0 | 3.2 | 0.08 | 1.24 | 0.38 | 96 | 1015.3 |